Weather History for Worcester, MA

Change the Weather History Date:

Tuesday, October 22, 2013

  Actual Average Record
Temperature  
Mean Temperature 51 °F 48 °F  
Max Temperature 61 °F 56 °F 82 °F (1979)
Min Temperature 41 °F 40 °F 19 °F (1940)
Degree Days  
Heating Degree Days 14 17  
Month to date heating degree days 205 301  
Since 1 July heating degree days 394 494  
Cooling Degree Days 0 0  
Month to date cooling degree days 1 0  
Year to date cooling degree days 572 468  
Growing Degree Days 2 (Base 50)    
Moisture  
Dew Point 43 °F    
Average Humidity 78    
Maximum Humidity 100    
Minimum Humidity 55    
Precipitation  
Precipitation T in 0.15 in 2.22 in (1988)
Month to date precipitation 1.28 3.40  
Year to date precipitation 37.53 38.69  
Sea Level Pressure  
Sea Level Pressure 29.84 in    
Wind  
Wind Speed 10 mph (WSW)    
Max Wind Speed 20 mph    
Max Gust Speed 25 mph    
Visibility 10 miles    
Events      
T = Trace of Precipitation, MM = Missing Value Source: NWS Daily Summary

Daily Weather History Graph

Daily Weather History Graph

Search for Another Location

Airport:

Trip Planner

Search our weather history database for the weather conditions in past years. The results will help you decide how hot, cold, wet, or windy it might be!

Date:

Astronomy

Oct. 22, 2013 Rise Set
Actual Time 7:08 AM EDT 5:54 PM EDT
Civil Twilight 6:40 AM EDT 6:23 PM EDT
Nautical Twilight 6:07 AM EDT 6:55 PM EDT
Astronomical Twilight 5:34 AM EDT 7:28 PM EDT
Moon 8:29 PM EDT 10:37 AM EDT
Length of Visible Light 11h 42m
Length of Day
10h 45m
Waning Gibbous, 87% of the Moon is Illuminated
Oct 22
Waning Gibbous
Oct 26
Last Quarter
Nov 3
New
Nov 10
First Quarter
Nov 17
Full

Hourly Weather History & Observations

Time (EDT) Temp. Windchill Dew Point Humidity Pressure Visibility Wind Dir Wind Speed Gust Speed Precip Events Conditions
12:54 AM 48.0 °F - 41.0 °F 77% 29.99 in 10.0 mi SSW 9.2 mph - N/A   Clear
1:54 AM 46.9 °F - 42.1 °F 83% 29.97 in 10.0 mi SSW 9.2 mph - N/A   Clear
2:54 AM 45.0 °F 40.6 °F 42.1 °F 90% 29.96 in 10.0 mi SSW 8.1 mph - N/A   Clear
3:54 AM 45.0 °F 41.2 °F 43.0 °F 93% 29.93 in 10.0 mi SSW 6.9 mph - N/A   Clear
4:54 AM 43.0 °F 38.8 °F 42.1 °F 97% 29.93 in 10.0 mi SW 6.9 mph - N/A   Clear
5:54 AM 45.0 °F 40.6 °F 44.1 °F 97% 29.91 in 10.0 mi SW 8.1 mph - N/A   Clear
6:54 AM 46.0 °F 41.0 °F 45.0 °F 96% 29.89 in 10.0 mi SSW 10.4 mph - N/A   Clear
7:54 AM 45.0 °F 40.6 °F 45.0 °F 100% 29.88 in 4.0 mi SW 8.1 mph - N/A   Clear
8:54 AM 51.1 °F - 48.9 °F 92% 29.88 in 10.0 mi SW 11.5 mph - N/A   Partly Cloudy
9:54 AM 54.0 °F - 48.9 °F 83% 29.85 in 10.0 mi SSW 11.5 mph - N/A   Scattered Clouds
10:54 AM 57.0 °F - 48.0 °F 72% 29.82 in 10.0 mi SSW 13.8 mph - N/A   Mostly Cloudy
11:54 AM 57.9 °F - 44.1 °F 60% 29.81 in 10.0 mi SW 12.7 mph 21.9 mph N/A   Overcast
12:54 PM 60.1 °F - 45.0 °F 57% 29.78 in 10.0 mi SSW 16.1 mph 25.3 mph N/A   Mostly Cloudy
1:54 PM 60.1 °F - 46.0 °F 60% 29.77 in 10.0 mi SW 11.5 mph - N/A   Overcast
2:54 PM 60.1 °F - 44.1 °F 55% 29.75 in 10.0 mi WSW 11.5 mph - N/A   Overcast
3:54 PM 59.0 °F - 45.0 °F 60% 29.74 in 10.0 mi WSW 9.2 mph - N/A   Mostly Cloudy
4:54 PM 55.9 °F - 48.0 °F 75% 29.74 in 10.0 mi SW 8.1 mph - 0.00 in   Overcast
5:54 PM 54.0 °F - 46.9 °F 77% 29.75 in 10.0 mi West 8.1 mph - N/A   Partly Cloudy
6:54 PM 51.1 °F - 44.1 °F 77% 29.77 in 10.0 mi NW 13.8 mph 20.7 mph N/A   Scattered Clouds
7:54 PM 46.9 °F - 39.0 °F 74% 29.77 in 10.0 mi WNW 9.2 mph - N/A   Clear
8:54 PM 46.0 °F 41.0 °F 37.9 °F 73% 29.78 in 10.0 mi NW 10.4 mph - N/A   Clear
9:54 PM 46.0 °F 41.0 °F 36.0 °F 68% 29.79 in 10.0 mi WNW 10.4 mph - N/A   Partly Cloudy
10:54 PM 45.0 °F 39.3 °F 36.0 °F 71% 29.80 in 10.0 mi NW 11.5 mph - N/A   Partly Cloudy
11:54 PM 43.0 °F 38.2 °F 34.0 °F 71% 29.80 in 10.0 mi WNW 8.1 mph - N/A   Clear